Campo, CA

1:48 PM PDT on July 15, 2019 (GMT -0700)
Campo

Weather History for KCZZ - May, 2019

Change the Weather History Date:

Friday, May 24, 2019

  Actual Average Record
Temperature  
Mean Temperature 53 °F 62 °F  
Max Temperature 71 °F 81 °F 92 °F (1984)
Min Temperature 34 °F 43 °F 26 °F (2010)
Degree Days  
Heating Degree Days 12 4  
Month to date heating degree days 231 131  
Since 1 July heating degree days 2949 2899  
Cooling Degree Days 0 1  
Month to date cooling degree days 0 19  
Year to date cooling degree days 2 22  
Growing Degree Days 2 (Base 50)    
Moisture  
Dew Point 44 °F    
Average Humidity 71    
Maximum Humidity 100    
Minimum Humidity 42    
Precipitation  
Precipitation 0.00 in 0.00 in 0.16 in (1977)
Month to date precipitation 1.41 0.16  
Year to date precipitation 12.60 10.02  
Sea Level Pressure  
Sea Level Pressure 29.87 in    
Wind  
Wind Speed 6 mph (WSW)    
Max Wind Speed 16 mph    
Max Gust Speed 22 mph    
T = Trace of Precipitation, MM = Missing Value Source: NWS Daily Summary

Daily Weather History Graph

Daily Weather History Graph

Search for Another Location

Airport or City:

Astronomy

May. 24, 2019 Rise Set
Actual Time 5:42 AM PDT 7:43 PM PDT
Civil Twilight 5:14 AM PDT 8:11 PM PDT
Nautical Twilight 4:40 AM PDT 8:44 PM PDT
Astronomical Twilight 4:05 AM PDT 9:21 PM PDT
Moon 12:12 AM PDT (5/24) 10:45 AM PDT (5/24)
Length of Visible Light 14h 56m
Length of Day
14h 01m
Waning Gibbous, 68% of the Moon is Illuminated
May 24
Waning Gibbous
May 26
Last Quarter
Jun 3
New
Jun 9
First Quarter
Jun 17
Full

Hourly Weather History & Observations

Time (PDT) Temp. Windchill Dew Point Humidity Pressure Visibility Wind Dir Wind Speed Gust Speed Precip Events Conditions
12:52 AM 43.0 °F - 42.1 °F 97% 29.93 in - Calm Calm - N/A   Unknown
1:52 AM 44.1 °F 41.5 °F 42.1 °F 93% 29.91 in - North 4.6 mph - N/A   Unknown
2:52 AM 39.9 °F - 37.9 °F 93% 29.92 in - Calm Calm - N/A   Unknown
3:52 AM 37.0 °F - 35.1 °F 93% 29.91 in - Calm Calm - N/A   Unknown
4:52 AM 36.0 °F 33.3 °F 35.1 °F 97% 29.91 in - NE 3.5 mph - N/A   Unknown
5:52 AM 35.1 °F 31.0 °F 33.1 °F 92% 29.91 in - NNE 4.6 mph - N/A   Unknown
6:52 AM 41.0 °F 38.0 °F 37.9 °F 89% 29.91 in - ENE 4.6 mph - N/A   Unknown
7:52 AM 50.0 °F - 44.1 °F 80% 29.90 in - Calm Calm - N/A   Unknown
8:52 AM 55.9 °F - 44.1 °F 64% 29.90 in - Calm Calm - N/A   Unknown
9:52 AM 64.0 °F - 43.0 °F 46% 29.88 in - South 8.1 mph - N/A   Unknown
10:52 AM 66.0 °F - 43.0 °F 43% 29.87 in - SSW 5.8 mph - N/A   Unknown
11:52 AM 66.9 °F - 43.0 °F 42% 29.87 in - SW 9.2 mph - N/A   Unknown
12:52 PM 69.1 °F - 46.0 °F 44% 29.86 in - SSW 10.4 mph - N/A   Unknown
1:52 PM 69.1 °F - 46.0 °F 44% 29.84 in - SW 11.5 mph - N/A   Unknown
2:52 PM 70.0 °F - 48.0 °F 46% 29.83 in - West 10.4 mph - N/A   Unknown
3:52 PM 70.0 °F - 51.1 °F 51% 29.83 in - SW 13.8 mph 21.9 mph N/A   Unknown
4:52 PM 68.0 °F - 51.1 °F 55% 29.83 in - WSW 16.1 mph - N/A   Unknown
5:52 PM 66.9 °F - 51.1 °F 57% 29.83 in - WNW 10.4 mph - N/A   Unknown
6:52 PM 62.1 °F - 50.0 °F 65% 29.84 in - WSW 8.1 mph - N/A   Unknown
7:52 PM 59.0 °F - 48.9 °F 69% 29.84 in - Calm Calm - N/A   Unknown
8:52 PM 55.0 °F - 48.0 °F 77% 29.84 in - Calm Calm - N/A   Unknown
9:52 PM 50.0 °F - 46.0 °F 86% 29.85 in - Calm Calm - N/A   Unknown
10:52 PM 48.9 °F - 46.0 °F 90% 29.84 in - ENE 5.8 mph - N/A   Unknown
11:52 PM 46.9 °F - 44.1 °F 90% 29.84 in - NE 3.5 mph - N/A   Unknown